Location: Ladeburg
(52.0819°N, 11.9355°E)
Time: 08:23:38
(UTC+00:00)

Daily predictions for brighter satellites

Satellite Brightness Start Highest point End
(mag) Time Altitude Azimuth Time Altitude Azimuth Time Altitude Azimuth
Unknown 3.7 16:35:13 10° WSW 16:39:22 85° SSE 16:43:32 10° ENE
Cosmos 1825 Rocket 3.8 16:35:35 10° NNW 16:39:59 76° W 16:44:22 10° S
Unknown 3.6 16:37:34 10° WSW 16:41:40 87° S 16:45:48 10° ENE
Okean-O 2.6 16:37:15 10° SSE 16:41:40 80° ENE 16:46:09 10° NNW
Ariane Rocket 4.2 16:38:01 10° ESE 16:41:56 23° NE 16:45:52 10° N
Cosmos 1821 Rocket 4.0 16:36:20 10° N 16:42:30 89° E 16:48:40 10° S
Unknown 3.7 16:38:21 10° WSW 16:42:31 84° SSE 16:46:40 10° ENE
Cosmos 1605 Rocket 4.3 16:37:05 10° N 16:43:01 44° ENE 16:48:50 10° SE
Cosmos 1953 Rocket 3.5 16:40:09 10° N 16:44:33 85° E 16:48:54 10° S
Cosmos 1992 Rocket 4.0 16:39:33 10° SSW 16:44:46 80° ESE 16:50:01 10° NNE
Unknown 3.6 16:41:41 10° WSW 16:45:50 85° SSE 16:50:00 10° ENE
Cosmos 2084 Rocket 4.1 16:42:04 10° NW 16:46:18 40° NNE 16:50:29 10° ESE
ATLAS CENTAUR R/B 3.6 16:43:36 10° NW 16:46:47 17° N 16:49:51 10° NE
Unknown 3.6 16:43:19 10° WSW 16:47:28 86° SSE 16:51:39 10° ENE
COSMOS 2406 3.3 16:42:17 10° NNW 16:48:06 87° WSW 16:53:51 10° SSE
Cosmos 1934 Rocket 4.0 16:41:46 10° N 16:48:07 67° ENE 16:54:27 10° SSE
Cosmos 1844 Rocket 2.7 16:43:18 10° SSW 16:48:58 88° ESE 16:54:39 10° NNE
Unknown 3.6 16:45:00 10° WSW 16:49:09 87° SSE 16:53:19 10° ENE
Cosmos 1703 3.4 16:46:46 10° N 16:50:38 51° ENE 16:54:28 10° SSE
CZ-4 R/B 1.8 16:46:45 10° SE 16:50:46 46° ENE 16:54:51 10° N
Unknown 3.6 16:46:38 10° WSW 16:50:47 88° SSE 16:54:56 10° ENE
Cosmos 292 Rocket 4.1 16:51:05 10° S 16:55:35 44° ESE 17:00:07 10° NE
BREEZE M DEB (TANK) 2.9 16:54:44 10° W 16:56:44 32° S 17:00:13 10° SE
Unknown 3.6 16:53:16 10° WSW 16:57:26 89° N 17:01:19 12° ENE
Cosmos 1606 Rocket 3.6 16:54:03 10° S 16:58:25 88° W 17:02:49 10° N
Nadezhda 3 Rocket 4.1 16:52:07 10° S 16:58:26 89° W 17:04:51 10° N
Cosmos 1777 Rocket 4.0 16:53:14 10° NNW 16:58:30 75° ENE 17:03:42 10° SSE
Unknown 3.6 16:54:58 10° WSW 16:59:08 88° NNW 17:02:57 12° ENE
Cosmos 839 Rocket 4.4 16:53:03 10° NW 16:59:12 73° SW 17:06:03 10° SSE
Cosmos 1535 Rocket 4.5 16:53:02 10° N 16:59:17 80° E 17:05:25 10° SSE
Unknown 3.6 16:56:34 10° WSW 17:00:44 88° NNW 17:04:30 13° ENE
Gbstr 26 Del rocket 4.2 16:55:11 10° WNW 17:00:52 69° SSW 17:07:54 10° ESE
NOAA 12 4.3 16:56:20 10° SSE 17:01:39 81° WSW 17:07:00 10° NNW
Unknown 3.6 16:58:15 10° WSW 17:02:25 87° N 17:06:06 13° ENE
Cosmos 1242 Rocket 2.7 16:59:28 10° NNW 17:03:11 82° WSW 17:06:52 10° S
Unknown 3.6 16:59:55 10° W 17:04:05 86° N 17:07:42 13° ENE
Unknown 3.6 17:03:14 10° W 17:07:25 85° N 17:10:54 14° ENE
SMAP 4.5 17:03:03 10° S 17:07:29 43° W 17:11:57 10° NNW
EO 1 Delta rocket 4.1 17:04:13 10° SE 17:08:41 50° ENE 17:13:42 10° N
Starlink (trailer) 3.6 17:04:54 10° W 17:09:03 85° N 17:12:29 15° ENE
Cosmos 1076 Rocket 4.4 17:06:07 10° N 17:09:59 29° ENE 17:13:48 10° SE
ATLAS 5 CENTAUR R/B 2.4 17:05:48 10° WSW 17:10:08 52° NW 17:15:07 10° NE
Unknown 3.6 17:06:32 10° W 17:10:42 84° N 17:14:03 15° ENE
Unknown 3.6 17:08:14 10° W 17:12:25 84° N 17:15:42 16° ENE
Meteor 1-16 Rocket 4.1 17:07:31 10° S 17:13:01 79° E 17:18:24 10° NNE
Meteor 1-11 4.2 17:09:33 10° NNW 17:15:22 81° ENE 17:21:11 10° SSE
ASTEX 1 3.3 17:11:11 10° N 17:16:10 73° E 17:21:08 10° S
Cosmos 1908 3.4 17:12:26 10° S 17:16:12 49° E 17:19:59 10° NNE
CZ-4 R/B 4.4 17:12:33 10° SSE 17:16:40 84° ENE 17:20:50 10° NNW
Cosmos 1953 3.5 17:13:06 10° SSW 17:17:02 48° WNW 17:21:00 10° N
FengYun 1-2 T 4.3 17:12:14 10° SSE 17:17:53 88° ENE 17:23:30 10° NNW
Cosmos 2278 Rocket 2.5 17:12:55 10° S 17:18:16 44° ESE 17:23:38 10° NE
Unknown 3.6 17:14:15 10° W 17:18:24 82° N 17:21:27 18° E
Unknown 3.6 17:14:27 10° W 17:18:35 82° N 17:21:36 18° E
Cosmos 1812 Rocket 4.4 17:14:58 10° SSE 17:18:46 28° E 17:22:37 10° NNE
Unknown 3.6 17:14:50 10° W 17:19:00 82° N 17:22:01 18° E
Unknown 3.6 17:17:40 10° W 17:21:51 81° N 17:24:45 19° E
Unknown 3.6 17:19:55 10° W 17:24:04 80° N 17:26:53 20° E
SKYMED 2 3.5 17:20:21 10° NNE 17:24:42 67° ESE 17:29:01 10° S
Cosmos 1844 4.1 17:19:07 10° SW 17:24:50 68° NW 17:30:39 10° NNE
Cosmos 1726 2.0 17:21:18 10° S 17:24:58 89° W 17:28:39 10° N
Unknown 3.6 17:21:41 10° W 17:25:51 80° N 17:28:35 21° E
Unknown 3.7 17:23:11 10° WNW 17:26:31 53° SSW 17:29:01 16° SE
Cosmos 2100 Rocket 4.4 17:21:15 10° N 17:27:05 40° ENE 17:32:50 10° SE
Abrixas rocket 3.6 17:24:35 10° SW 17:27:07 23° SSE 17:28:08 19° SE
Unknown 3.6 17:25:01 10° W 17:29:10 79° N 17:31:46 22° E
YAOGAN 1 2.5 17:24:52 10° SSE 17:29:12 84° ENE 17:33:34 10° NNW
Unknown 3.6 17:25:09 10° W 17:29:19 79° N 17:31:55 22° E
Cosmos 2058 3.6 17:26:06 10° N 17:29:56 32° ENE 17:32:43 16° SE
Unknown 3.3 17:26:15 10° WNW 17:30:00 86° N 17:32:10 24° E
Unknown 3.6 17:26:33 10° W 17:30:43 79° N 17:33:16 23° E
FALCON 9 DEB 3.6 17:28:34 10° WNW 17:31:59 56° SSW 17:34:14 19° SE
ATLAS 3B R/B 4.0 17:28:46 10° SE 17:32:24 16° ESE 17:32:24 16° ESE
Cosmos 2228 4.1 17:28:37 10° SSW 17:32:50 48° WNW 17:37:04 10° N
CSL-04 Rocket 3.7 17:27:39 10° SSE 17:33:11 89° WSW 17:38:42 10° NNW
Cosmos 2084 4.3 17:29:01 10° WSW 17:33:24 49° NW 17:37:33 11° NE
Unknown 3.6 17:29:47 10° W 17:33:56 79° N 17:36:21 24° E
Cosmos 489 Rocket 4.4 17:28:21 10° SSW 17:34:33 81° ESE 17:40:48 10° NNE
Lacrosse 5 2.1 17:29:41 10° WNW 17:34:45 71° SW 17:39:03 14° SE
Cosmos 2151 4.2 17:31:27 10° NNE 17:34:47 21° ENE 17:35:05 21° ENE
H-2A R/B 3.3 17:33:28 20° E 17:35:23 24° ENE 17:39:40 10° N
Unknown 3.6 17:33:11 10° W 17:37:20 78° N 17:39:37 26° E
Cosmos 2263 Rocket 4.4 17:33:43 10° WNW 17:37:49 20° NNW 17:41:55 10° NNE
Envisat 3.9 17:32:56 10° S 17:37:54 53° W 17:42:54 10° NNW
Unknown 3.6 17:34:53 10° W 17:39:03 78° N 17:41:15 27° E
Unknown 3.6 17:36:33 10° W 17:40:43 78° N 17:42:51 28° E
Cosmos 921 Rocket 4.0 17:36:36 10° SW 17:40:58 51° WNW 17:45:20 10° NNE
CENTAUR R/B 3.8 17:37:34 10° SSE 17:40:48 18° ESE 17:40:48 18° ESE
Cosmos 1153 Rocket 4.4 17:35:37 10° N 17:41:47 73° ENE 17:47:55 10° SSE
Cosmos 1898 Rocket 3.9 17:37:10 10° NNW 17:42:13 43° NE 17:45:15 22° ESE
Unknown 3.6 17:38:13 10° W 17:42:24 77° N 17:44:27 29° E
ARGOS 4.2 17:42:22 23° E 17:43:57 26° ENE 17:48:24 10° N
Unknown 3.7 17:41:39 10° WNW 17:45:06 53° SSW 17:46:48 26° SE
Unknown 3.6 17:41:34 10° W 17:45:44 77° N 17:47:39 31° E
Cosmos 1356 4.4 17:43:38 10° SSW 17:46:59 49° WNW 17:50:21 10° N
Unknown 3.6 17:43:17 10° W 17:47:27 77° N 17:49:18 32° E
Cosmos 1892 4.1 17:44:19 10° NNE 17:46:40 22° NE 17:46:40 22° NE
Falcon 9 debris 4.1 17:44:36 10° W 17:47:54 42° SSW 17:49:37 23° SSE
Meteor 2-10 4.2 17:43:05 10° SSW 17:48:07 70° WNW 17:53:10 10° N
NOAA 11 4.1 17:42:49 10° SSE 17:48:15 77° ENE 17:53:43 10° NNW
Unknown 3.6 17:44:53 10° W 17:49:02 77° N 17:50:50 33° E
Cosmos 1833 Rocket 3.1 17:44:19 10° NW 17:49:54 64° WSW 17:55:25 10° SSE
Unknown 3.6 17:46:30 10° W 17:50:39 77° N 17:52:23 34° E
Unknown 3.6 17:47:18 10° W 17:51:28 77° N 17:53:10 34° E
IRS-1A Rocket 4.2 17:48:09 10° SSE 17:53:36 67° ENE 17:59:06 10° NNW
Unknown 3.6 17:49:40 10° W 17:53:50 77° N 17:55:26 36° ENE
YAOGAN 6 4.1 17:52:51 10° SSW 17:56:16 38° W 17:59:42 10° NNW
USA 116 3.1 17:53:11 10° NNE 17:56:23 89° W 17:59:46 10° SSW
Cosmos 1939 Rocket 2.8 17:52:40 10° SSE 17:56:42 86° ENE 18:00:48 10° NNW
Unknown 3.6 17:53:02 10° W 17:57:12 77° N 17:58:39 39° ENE
Unknown 3.3 17:54:16 10° WNW 17:58:07 89° NNE 17:59:13 45° ESE
DMSP B5D1-3 4.5 17:53:36 10° NNE 17:58:44 64° ESE 18:03:49 10° S
Unknown 3.6 17:54:41 10° W 17:58:51 77° N 18:00:14 40° ENE
Unknown 3.6 17:56:34 10° W 18:00:44 77° N 18:02:03 42° E
Cosmos 2058 Rocket 4.5 17:58:01 10° SW 18:02:07 40° WNW 18:06:16 10° N
Unknown 3.6 17:58:00 10° W 18:02:10 77° N 18:03:26 43° ENE
USA 238 DEB 3.7 17:56:40 10° SSW 18:03:11 55° SE 18:08:11 19° NE
USA 238 3.7 17:56:47 10° SSW 18:03:18 55° SE 18:08:15 19° NE
Unknown 3.6 17:59:39 10° W 18:03:48 77° N 18:05:00 45° ENE
Unknown 4.3 18:03:43 10° W 18:07:00 38° SSW 18:08:00 30° S
Unknown 3.6 18:03:02 10° W 18:07:12 77° N 18:08:15 48° ENE
SJ-11-01 4.3 18:06:20 33° SE 18:08:10 55° ENE 18:12:45 10° N
CZ-2D R/B 3.6 18:04:48 10° S 18:08:38 64° W 18:12:30 10° NNW
Unknown 3.6 18:04:40 10° W 18:08:50 77° N 18:09:49 50° ENE
Cosmos 1300 2.5 18:06:29 10° S 18:10:16 66° E 18:14:05 10° NNE
SJ 16-02 1.6 18:06:04 10° NNW 18:10:18 44° ENE 18:10:33 44° ENE
Unknown 3.6 18:06:21 10° W 18:10:31 77° N 18:11:26 52° ENE
Unknown 3.6 18:08:00 10° W 18:12:09 77° N 18:13:01 54° ENE
COSMO-SKYMED 1 3.7 18:08:35 10° N 18:12:44 45° WNW 18:16:53 10° SW
Cosmos 2227 Rocket 4.5 18:11:53 10° NNW 18:13:44 11° N 18:15:36 10° NNE
Cosmos 2061 Rocket 4.0 18:09:06 10° N 18:15:18 59° ENE 18:19:06 24° SSE
Unknown 3.6 18:11:25 10° W 18:15:34 78° N 18:16:17 59° ENE
Unknown 3.3 18:12:01 10° WNW 18:15:56 87° SSW 18:16:22 69° ESE
Unknown 3.5 18:12:32 10° W 18:16:42 78° N 18:17:22 60° ENE
Unknown 3.5 18:13:12 10° W 18:17:23 79° N 18:18:00 62° ENE
Unknown 3.4 18:13:30 10° W 18:17:34 82° N 18:18:05 66° E
Cosmos 2082 Rocket 2.8 18:12:57 10° NW 18:18:33 56° WSW 18:24:05 10° S
Cosmos 2297 Rocket 4.4 18:16:57 10° NNW 18:18:56 12° N 18:20:55 10° NNE
Unknown 3.5 18:14:54 10° W 18:19:03 79° N 18:19:37 64° ENE
Cosmos 1459 Rocket 3.9 18:13:39 10° N 18:19:54 81° E 18:26:13 10° SSE
Ariane Rocket 3.2 18:15:21 10° S 18:20:26 71° WSW 18:25:34 10° NNW
Unknown 3.4 18:17:05 10° W 18:21:12 80° N 18:21:37 69° ENE
Unknown 3.5 18:18:02 10° W 18:22:12 79° N 18:22:39 68° ENE
CZ-2C R/B 3.9 18:22:04 37° ENE 18:22:24 37° ENE 18:27:37 10° N
Unknown 3.5 18:21:22 10° W 18:25:32 79° N 18:25:50 73° ENE
Cosmos 2084 Rocket 4.3 18:21:39 10° NW 18:25:56 49° SW 18:27:37 31° S
CZ-4 R/B 4.0 18:22:38 10° SW 18:26:00 23° W 18:29:25 10° NW
NOSS 3-2 (A) 3.4 18:21:08 10° SSW 18:26:54 62° SE 18:29:49 33° ENE
Unknown 3.5 18:23:01 10° W 18:27:11 80° N 18:27:25 75° NE
ATLAS CENTAUR R/B 2.9 18:23:19 10° NNW 18:27:12 26° NNE 18:27:18 26° NNE
Unknown 3.5 18:24:41 10° W 18:28:52 80° N 18:29:02 78° NE
Unknown 3.5 18:26:20 10° W 18:30:30 80° N 18:30:35 79° NNE
Cosmos 1766 Rocket 3.7 18:27:08 10° N 18:30:54 57° NE 18:30:54 57° NE
Meteor 2-1 Rocket 4.0 18:26:50 10° S 18:32:17 70° E 18:37:53 10° NNE
HJ-1C 4.2 18:32:26 44° SW 18:32:58 50° W 18:36:17 10° NNW
Cosmos 44 4.5 18:29:58 10° SSW 18:32:31 27° S 18:32:31 27° S
Cosmos 1937 Rocket 3.3 18:30:30 10° NNW 18:35:41 77° ENE 18:36:31 61° SE
Cosmos 858 Rocket 4.3 18:31:01 10° NNW 18:36:15 80° ENE 18:37:15 58° SE
Unknown 3.6 18:32:58 10° W 18:36:58 79° NW 18:36:58 79° NW
Cosmos 990 Rocket 3.9 18:32:36 10° NNW 18:37:50 84° WSW 18:39:26 46° SSE
Okean 3 Rocket 3.5 18:33:42 10° NNW 18:38:17 87° WSW 18:38:58 64° S
Unknown 3.6 18:34:40 10° W 18:38:36 77° NW 18:38:36 77° NW
Unknown 3.7 18:36:16 10° W 18:40:08 75° NW 18:40:08 75° NW
Resurs 01 Rocket 3.2 18:42:28 23° NNE 18:42:28 23° NNE 18:44:32 10° N
Unknown 3.7 18:37:58 10° W 18:41:45 72° WNW 18:41:45 72° WNW
In-Cosmos 22 Rocket 4.3 18:37:34 10° NNW 18:42:56 71° W 18:46:48 20° S
Cosmos 1727 Rocket 4.5 18:37:27 10° SSW 18:43:33 60° WNW 18:49:41 10° N
Unknown 3.8 18:39:37 10° W 18:43:21 70° WNW 18:43:21 70° WNW
Cosmos 2173 Rocket 4.2 18:40:42 10° NNW 18:46:56 68° W 18:53:03 10° S
Unknown 3.9 18:42:57 10° W 18:46:33 65° WNW 18:46:33 65° WNW
Starlink (trailer) 4.0 18:44:36 10° WNW 18:48:08 63° WNW 18:48:08 63° WNW
Unknown 4.1 18:46:15 10° WNW 18:49:42 60° WNW 18:49:42 60° WNW
SJ-6B 4.1 18:52:53 34° NNW 18:52:53 34° NNW 18:55:06 10° NNW
Cosmos 1864 Rocket 4.3 18:45:46 10° N 18:51:57 80° E 18:53:32 53° SSE
NOSS 3-2 (C) 3.4 18:46:13 10° SSW 18:51:57 61° SE 18:51:57 61° SE
Unknown 4.1 18:47:57 10° WNW 18:51:21 58° WNW 18:51:21 58° WNW
Cosmos 1802 Rocket 4.2 18:46:08 10° NNW 18:52:34 75° W 18:57:43 17° S
ADEOS Rocket 3.4 18:45:01 10° NNE 18:52:40 60° E 18:59:47 10° S
Cosmos 2298 Rocket 4.3 18:47:26 10° NNW 18:52:04 52° NNE 18:52:04 52° NNE
ATLAS 5 CENTAUR R/B 3.6 18:51:54 10° WNW 18:55:53 25° N 18:57:39 21° NNE
SPOT 3 Rocket 3.5 18:57:17 68° S 18:57:56 82° WSW 19:03:11 10° NNW
Unknown 4.4 18:53:57 10° WNW 18:57:05 50° WNW 18:57:05 50° WNW
Unknown 4.4 18:54:05 10° WNW 18:57:11 50° WNW 18:57:11 50° WNW
Unknown 4.4 18:54:32 10° WNW 18:57:40 50° WNW 18:57:40 50° WNW
Cosmos 2123 Rocket 3.8 19:01:06 70° ESE 19:01:24 71° E 19:07:39 10° NNE
Cosmos 2278 Rocket 3.3 18:57:01 10° WSW 19:02:24 43° NW 19:07:50 10° NNE
Cosmos 2297 3.6 18:59:04 10° SSW 19:04:47 86° ESE 19:04:48 86° ESE
Cosmos 1725 Rocket 4.0 19:02:12 10° NNW 19:08:30 82° W 19:10:07 53° S
Cosmos 2233 Rocket 3.9 19:02:27 10° N 19:08:30 70° ENE 19:08:30 70° ENE
Cosmos 2151 4.0 19:08:12 10° NNW 19:11:41 45° WNW 19:11:41 45° WNW
H-2A R/B 2.2 19:14:06 70° WSW 19:14:19 72° WSW 19:19:47 10° NNW
Lacrosse 5 3.9 19:13:29 10° W 19:17:00 19° SW 19:18:16 18° SW
ATLAS 3B R/B 3.3 19:15:33 10° SSW 19:19:45 40° SSW 19:19:45 40° SSW
ARGOS 3.4 19:23:53 65° W 19:23:53 65° W 19:29:16 10° NNW
Cosmos 1238 Rocket 4.1 19:18:44 10° N 19:24:35 66° NNE 19:24:35 66° NNE
CENTAUR R/B 3.5 19:24:51 10° SW 19:28:05 35° SSW 19:28:05 35° SSW
Meteor 2-3 Rocket 4.4 19:27:13 10° NNW 19:31:23 49° N 19:31:23 49° N
SJ 16-02 3.6 19:45:03 10° NW 19:47:34 23° WNW 19:47:34 23° WNW
USA 238 DEB 4.3 19:47:38 10° WSW 19:54:16 54° NNW 19:55:39 47° N
USA 238 4.2 19:47:44 10° WSW 19:54:22 54° NNW 19:55:43 47° N
Cosmos 2227 Rocket 4.2 19:55:47 10° NNW 19:58:17 19° N 19:58:17 19° N
CZ-2C R/B 4.3 20:03:09 44° WNW 20:03:09 44° WNW 20:07:43 10° NNW
Cosmos 2297 Rocket 4.2 20:00:44 10° NNW 20:03:06 19° N 20:03:06 19° N
ATLAS CENTAUR R/B 4.1 20:02:15 10° NW 20:03:29 18° NW 20:03:29 18° NW
Resurs 01 Rocket 4.4 20:20:03 16° NW 20:20:03 16° NW 20:21:03 10° NNW
NOSS 3-2 (A) 4.4 20:12:08 10° W 20:17:15 45° NW 20:17:15 45° NW
ATLAS 5 CENTAUR R/B 4.4 20:37:36 10° NW 20:39:10 18° NNW 20:39:10 18° NNW
